sat.trackr.live / text

‹ back to catalog

STARLINK-38019

NORAD 69762 · 2026-150Z

PAYLOAD ACTIVE UNKNOWN

§ Identity

Operator
Country
US
Launch date
2026-07-02
Launch site
AFWTR
Launch vehicle
Mass (kg)
RCS (m²)

Purposes: comms

External: N2YO · Heavens-Above · Gunter

§ Orbital elements

Epoch: 2026-09-20T04:00:03.000096Z

Period
92.95 min
Inclination
97.2852°
Eccentricity
0.0001489
Mean motion
15.49215939 rev/d
Perigee alt
418.0 km
Apogee alt
420.0 km
Semi-major
6,797.2 km
B*
-7.0704e-4
RAAN
104.7371°
Arg perigee
91.0035°
Mean anomaly
52.7962°
Rev number
594

§ Raw data

STARLINK-380191 69762U 26150Z   26263.16670139 -.00038394  00000+0 -70704-3 0  99952 69762  97.2852 104.7371 0001489  91.0035  52.7962 15.49215939  5945

JSON: /api/v1/satellites/69762 · /tle

For live sub-satellite position, see the globe view (requires WebGL).

§ Visibility from observer

Set your observer location to see the next 7 days of passes ≥ 10°. The values pass through the URL so the page stays shareable.

No JS? Fill the form by hand. The geolocation button needs JavaScript.